{"data":{"norad_id":69346,"intl_designator":"2026-122T","name":"STARLINK-37773","alt_names":[],"object_type":"PAYLOAD","status":"ACTIVE","operator":null,"country":"US","launch_date":"2026-06-03","launch_site_code":"AFWTR","launch_vehicle":null,"mission":null,"orbit_class":"UNKNOWN","rcs_meters":null,"size_class":null,"mass_kg":null,"dimensions":null,"purposes":["comms"],"wikipedia_slug":null,"has_3d_model":false,"image_url":null,"decayed_at":null,"tle_current":{"epoch":"2026-09-20T01:24:14.596128Z","epoch_age_seconds":67167,"freshness":"FRESH","line1":"1 69346U 26122T   26263.05850227  .00011920  00000+0  37081-3 0  9993","line2":"2 69346  97.2855 291.7161 0000203 219.5851 140.5377 15.33459007 16730","mean_motion":15.33459007,"eccentricity":2.03e-5,"inclination_deg":97.2855,"raan_deg":291.7161,"arg_perigee_deg":219.5851,"mean_anomaly_deg":140.5377,"bstar":0.00037081,"rev_number":1673,"period_min":93.905346893958,"perigee_km":465.36257395657,"apogee_km":465.64042567967,"semimajor_km":6843.6384998181,"source":"CELESTRAK","updated_at":"2026-09-20T09:00:44.162525Z"}}}